User: anonymous   Login
Location: Drummondville
(45.8830°N, 72.4830°W)
Time: 06:53:16
(UTC-05:00)
Language:

Tiangong 2 - Orbit

View from above orbital plane
View from above orbital plane
View from above satellite
View from above satellite

Ground track
Ground track

The orbit data is extracted from the following two-line orbital elements,

1 41765U 16057A   17324.02026624  .00005580  00000-0  72896-4 0  9995
2 41765  42.7826 148.9241 0003980 256.6888 242.3969 15.59548030 67307
Epoch (UTC): 20 November 2017 00:29:11
Eccentricity: 0.0003980
inclination: 42.7826°
perigee height: 386 km
apogee height: 391 km
right ascension of ascending node: 148.9241°
argument of perigee: 256.6888°
revolutions per day: 15.59548030
mean anomaly at epoch: 242.3969°
orbit number at epoch: 6730

The dashed part of the orbit path shows where the satellite is in the earth's shadow,  

DLR